EW7207 Weather Reports


time (UTC)temp
C
wind
direction
speed
KPH
gust
KPH
rain 1hr
cm
rain 24hr
cm
rain mn
cm
humidity
%
barometer
mb
20260510120253 11 45 0.0 0.0 0.00 0.76 0.00 97 1047.4
20260510115252 10 38 0.0 3.2 0.00 0.76 0.00 97 1047.3
20260510114252 10 45 3.2 3.2 0.00 0.76 0.00 97 1046.9
20260510113349 10 45 3.2 4.8 0.00 0.76 0.00 97 1047.0
20260510112351 10 315 0.0 1.6 0.00 0.76 0.00 98 1047.0
20260510111350 10 225 0.0 0.0 0.00 0.76 0.00 98 1046.6
20260510110351 10 115 1.6 4.8 0.00 0.76 0.00 98 1046.6
20260510105450 10 67 0.0 0.0 0.00 0.76 0.00 97 1046.7
20260510104453 10 157 0.0 0.0 0.00 0.76 0.00 98 1046.8
20260510104351 10 157 0.0 0.0 0.00 0.76 0.00 98 1046.8
20260510102350 10 180 1.6 4.8 0.00 0.76 0.00 97 1046.6
20260510094551 10 180 0.0 0.0 0.00 0.76 0.00 97 1046.1
20260510093650 10 180 0.0 0.0 0.00 0.76 0.00 97 1046.3
20260510092651 10 180 0.0 0.0 0.00 0.76 0.00 97 1046.1
20260510091750 10 112 0.0 0.0 0.00 0.76 0.00 97 1046.2
20260510085850 10 112 0.0 0.0 0.00 0.76 0.00 97 1046.4
20260510084852 10 112 0.0 0.0 0.00 0.76 0.00 97 1046.4
20260510083949 10 112 0.0 0.0 0.00 0.76 0.00 97 1046.4
20260510082951 10 135 1.6 3.2 0.00 0.76 0.00 97 1046.5
20260510081951 10 358 0.0 1.6 0.00 0.76 0.00 97 1046.6
20260510080951 10 7 3.2 4.8 0.00 0.76 0.00 97 1046.5
20260510073052 10 15 0.0 3.2 0.00 0.76 0.00 97 1045.9
20260510072051 10 45 0.0 0.0 0.00 0.76 0.00 97 1045.6
20260510071051 10 45 0.0 0.0 0.00 0.76 0.00 97 1045.7
20260510070052 10 45 0.0 0.0 0.00 0.76 0.00 97 1045.7
20260510064150 10 45 0.0 0.0 0.00 0.76 0.00 97 1045.8
20260510063152 10 45 0.0 0.0 0.00 0.76 0.00 97 1045.9
20260510062150 10 38 1.6 6.4 0.00 0.76 0.00 97 1046.1
20260510061150 10 5 1.6 8.0 0.00 0.76 0.00 96 1046.1
20260510060152 10 360 0.0 0.0 0.00 0.76 0.00 96 1045.9
20260510055151 10 360 0.0 0.0 0.00 0.76 0.00 96 1045.7
20260510054153 10 360 0.0 0.0 0.00 0.76 0.00 96 1045.5
20260510053250 10 360 0.0 0.0 0.00 0.76 0.00 96 1045.7
20260510052251 10 360 0.0 0.0 0.00 0.76 0.00 96 1045.7
20260510051251 10 360 0.0 0.0 0.00 0.76 0.00 96 1045.7
20260510050349 10 360 0.0 0.0 0.00 0.76 0.00 96 1045.8
20260510045351 10 360 0.0 0.0 0.00 0.76 0.00 96 1045.9
20260510044352 10 360 0.0 0.0 0.00 0.76 0.00 96 1045.8
20260510043451 10 360 0.0 0.0 0.00 0.76 0.00 96 1046.0
20260510042550 10 360 0.0 0.0 0.00 0.76 0.00 96 1046.0
20260510040552 10 360 0.0 0.0 0.00 0.76 0.00 96 1045.7
20260510035632 10 360 0.0 0.0 0.00 0.76 0.76 96 1045.6
20260510034632 10 360 0.0 0.0 0.00 0.76 0.76 96 1045.8
20260510033730 10 360 0.0 0.0 0.00 0.76 0.76 96 1045.8
20260510031732 10 360 0.0 0.0 0.00 0.76 0.76 96 1045.7
20260510030831 10 360 0.0 0.0 0.00 0.76 0.76 95 1045.6
20260510025832 10 360 0.0 0.0 0.00 0.76 0.76 95 1045.5
20260510024832 10 360 0.0 0.0 0.00 0.76 0.76 95 1045.6
20260510023833 10 360 0.0 1.6 0.00 0.76 0.76 95 1045.5
20260510022931 10 45 0.0 0.0 0.00 0.76 0.76 95 1045.5
20260510021932 10 45 0.0 0.0 0.00 0.76 0.76 95 1045.4
20260510020932 10 45 0.0 0.0 0.00 0.76 0.76 94 1045.5
20260510015934 10 45 0.0 0.0 0.00 0.76 0.76 94 1045.6
20260510014935 10 45 0.0 0.0 0.00 0.76 0.76 94 1045.4
20260510014032 11 67 0.0 0.0 0.00 0.76 0.76 94 1045.4
20260510013131 11 67 0.0 0.0 0.00 0.76 0.76 94 1045.4
20260510012133 11 67 0.0 0.0 0.00 0.76 0.76 94 1045.5
20260510011134 11 76 3.2 4.8 0.00 0.76 0.76 93 1045.3
20260510010230 11 90 1.6 3.2 0.00 0.76 0.76 93 1045.3
20260510004235 11 90 0.0 3.2 0.00 0.76 0.76 93 1045.0
20260510003331 11 79 3.2 6.4 0.00 0.76 0.76 93 1044.8
20260510002330 11 67 1.6 1.6 0.00 0.76 0.76 92 1044.7
20260510001332 12 111 1.6 4.8 0.00 0.76 0.76 92 1044.8
20260510000333 12 138 4.8 8.0 0.00 0.76 0.76 91 1044.7
20260509235330 12 135 1.6 3.2 0.00 0.76 0.76 91 1044.7
20260509234331 12 135 0.0 1.6 0.00 0.76 0.76 90 1044.8
20260509233331 12 157 0.0 3.2 0.00 0.76 0.76 90 1044.6
20260509232330 13 140 1.6 8.0 0.00 0.76 0.76 89 1044.8
20260509231333 13 157 0.0 3.2 0.00 0.76 0.76 88 1044.7
20260509230431 13 155 4.8 6.4 0.00 0.76 0.76 88 1044.7
20260509225431 13 135 0.0 3.2 0.00 0.76 0.76 87 1044.6
20260509224432 13 170 4.8 6.4 0.00 0.76 0.76 88 1044.8
20260509222531 13 180 1.6 3.2 0.00 0.76 0.76 87 1044.8
20260509221532 13 180 3.2 4.8 0.00 0.76 0.76 88 1044.8
20260509220531 13 157 4.8 6.4 0.00 0.76 0.76 88 1044.8
20260509215532 13 135 0.0 3.2 0.00 0.76 0.76 87 1044.7
20260509213531 13 315 0.0 0.0 0.00 0.76 0.76 84 1044.8
20260509212531 13 2 1.6 3.2 0.00 0.76 0.76 85 1044.8
20260509211532 13 312 1.6 4.8 0.00 0.76 0.76 87 1045.1
20260509210532 13 273 1.6 3.2 0.05 0.76 0.76 89 1045.2
20260509205631 12 315 0.0 1.6 0.08 0.76 0.76 91 1045.0
20260509204632 12 270 0.0 0.0 0.08 0.76 0.76 92 1045.0
20260509203731 12 270 0.0 1.6 0.10 0.76 0.76 93 1045.0
20260509202733 11 157 0.0 1.6 0.10 0.76 0.76 93 1044.9
20260509201733 12 180 0.0 1.6 0.13 0.76 0.76 92 1045.0
20260509195832 12 112 0.0 0.0 0.18 0.69 0.69 92 1045.1
20260509194931 11 103 0.0 1.6 0.23 0.69 0.69 92 1045.2
20260509193032 11 22 0.0 0.0 0.30 0.66 0.66 92 1045.7
20260509192031 11 40 3.2 3.2 0.36 0.66 0.64 91 1046.0
20260509191030 11 337 0.0 0.0 0.33 0.58 0.58 91 1046.4
20260509190032 12 360 1.6 3.2 0.30 0.51 0.51 91 1046.2
20260509185031 12 22 0.0 1.6 0.30 0.46 0.46 91 1046.5
20260509184032 12 337 1.6 3.2 0.25 0.41 0.41 91 1046.6
20260509183032 12 360 0.0 1.6 0.25 0.36 0.36 90 1046.6
20260509182032 12 337 0.0 0.0 0.23 0.30 0.30 90 1046.8
20260509181033 12 360 0.0 0.0 0.20 0.25 0.25 90 1046.6
20260509180132 12 337 0.0 0.0 0.20 0.20 0.20 89 1046.5
20260509175132 12 339 0.0 1.6 0.18 0.18 0.15 89 1046.5
20260509174231 12 360 0.0 1.6 0.15 0.15 0.15 89 1046.6
20260509173232 12 45 0.0 0.0 0.13 0.13 0.10 88 1046.4
20260509171331 13 337 0.0 0.0 0.05 0.05 0.05 83 1047.0
20260509170332 13 247 4.8 6.4 0.03 0.03 0.03 81 1047.0
20260509165333 13 266 8.0 9.7 0.00 0.00 0.00 79 1046.8
20260509164430 13 289 6.4 9.7 0.00 0.00 0.00 78 1046.8
20260509163432 14 292 1.6 4.8 0.00 0.00 0.00 77 1046.8
20260509161532 14 264 8.0 9.7 0.00 0.00 0.00 75 1047.0
20260509160531 14 272 4.8 9.7 0.00 0.00 0.00 76 1047.1
20260509155630 14 262 9.7 16.1 0.00 0.00 0.00 76 1047.3
20260509154632 14 291 8.0 9.7 0.00 0.00 0.00 78 1047.2
20260509153633 14 282 3.2 4.8 0.00 0.00 0.00 79 1047.3
20260509151734 13 218 0.0 3.2 0.00 0.00 0.00 78 1047.0
20260509150830 13 202 3.2 4.8 0.00 0.00 0.00 79 1047.1
20260509144832 13 157 0.0 0.0 0.00 0.00 0.00 80 1047.1
20260509143835 13 157 0.0 0.0 0.00 0.00 0.00 78 1047.1
20260509142931 13 157 0.0 0.0 0.00 0.00 0.00 78 1047.1
20260509141933 13 157 0.0 0.0 0.00 0.00 0.00 78 1047.1
20260509135931 12 180 0.0 3.2 0.00 0.00 0.00 77 1047.0
20260509134031 12 157 1.6 3.2 0.00 0.00 0.00 77 1046.8
20260509132033 12 157 0.0 0.0 0.00 0.00 0.00 76 1046.8
20260509131131 12 194 1.6 4.8 0.00 0.00 0.00 76 1046.8
20260509130133 12 67 0.0 0.0 0.00 0.00 0.00 77 1047.1
20260509125131 12 128 1.6 4.8 0.00 0.00 0.00 78 1046.9
20260509123132 11 157 0.0 0.0 0.00 0.00 0.00 77 1046.8
20260509122133 11 112 0.0 3.2 0.00 0.00 0.00 78 1047.0
20260509121132 11 112 0.0 0.0 0.00 0.00 0.00 80 1046.8